Погода в Кумамото

Япония     32°51′21″N   130°43′00″E
темп.,
°C
ветер,
м/с
пор.,
м/с
влажн.,
%
обл.,
%
осадки,
мм/ч
давл.,
гПа
погр.,
м
18 апреля, вс
вс1800:00+11зсз38473 0.0 1016716
03:00+9зсз49440 0.0 1016938
06:00+9зсз38535 0.0 1016697
09:00+12зсз694869 0.0 10172007
12:00+15зсз58375 0.0 10162076
15:00+16зсз58342 0.0 10151943
18:00+14сз34434 0.0 10161242
21:00+10в22570 0.0 101977
19 апреля, пн
пн1900:00+9в2261100 0.0 101971
03:00+8вюв11570 0.0 101931
06:00+7в21560 0.0 102033
09:00+14сз01420 0.0 1019544
12:00+18з32340 0.0 10181178
15:00+19з33320 0.0 10171274
18:00+16ююз34480 0.0 1018368
21:00+12юв22620 0.0 101969
20 апреля, вт
вт2000:00+10вюв21630 0.0 102039
03:00+9вюв11630 0.0 102024
06:00+9вюв11650 0.0 102126
09:00+16сз11464 0.0 1022360
12:00+21зсз22292 0.0 1020868
15:00+23з32285 0.0 1019915
18:00+19зюз1240100 0.0 102067
21:00+16вюв115369 0.0 102213
21 апреля, ср
ср2100:00+14юв116499 0.0 102214
03:00+13в11705 0.0 102313
06:00+12в11695 0.0 102318
09:00+20сз11390 0.0 1023385
12:00+24з32283 0.0 1021896
15:00+25зюз332795 0.0 1019646
18:00+21юз2338100 0.0 1019122
21:00+17юв115496 0.0 102126
22 апреля, чт
чт2200:00+15в216594 0.0 102134
03:00+14вюв11595 0.0 102022
06:00+13в21468 0.0 102023
09:00+20с113057 0.0 1020323
12:00+25з43235 0.0 1017964
15:00+26з32225 0.0 1015863
18:00+22зюз2336100 0.0 1015115
21:00+17юв225567 0.0 101745